Regional Weather Roundup
Issued by NWS Green Bay, WI

Home | Current Version | Previous Version | Graphics & Text | Print | Product List | Glossary Off
Versions: 1 2 3 4 5 6 7 8 9 10 11 12 13 14 15 16 17 18 19 20 21 22 23 24 25 26 27 28 29 30 31 32 33 34 35 36 37 38 39 40 41 42 43 44 45 46 47 48 49 50

000
ASUS43 KGRB 122310
RWRGRB

NORTH-CENTRAL AND NORTHEAST WISCONSIN REGIONAL WEATHER ROUNDUP
NATIONAL WEATHER SERVICE GREEN BAY WI
600 PM CDT SAT JUL 12 2014

WIZ005-009-010>012-018-019-130000-
NORTH CENTRAL WISCONSIN

CITY           SKY/WX    TMP DP  RH WIND       PRES   REMARKS
IRONWOOD       CLOUDY    66  59  77 W5        29.89S
MANITOWISH WTR CLOUDY    72  67  86 CALM      29.92S
ARBOR VITAE    CLOUDY    66  61  84 S7        29.94F
EAGLE RIVER    CLOUDY    65  61  88 SW6       29.94R
LAND O LAKES   CLOUDY    74  65  75 SW3       29.93S
RHINELANDER    LGT RAIN  64  62  93 S3        29.98F FOG
PHILLIPS       LGT RAIN  67  67  98 SW8       29.94F
ANTIGO         RAIN      65  60  85 NW22G29   29.99R
TOMAHAWK       RAIN      63  61  94 CALM      29.99R
MERRILL        HVY RAIN  64  63  94 NW3       29.99R
$$

WIZ013-073-130000-
NORTHEAST WISCONSIN

CITY           SKY/WX    TMP DP  RH WIND       PRES   REMARKS
IRON MOUNTAIN  LGT RAIN  70  63  78 VRB7      29.88S
MARINETTE      CLOUDY    77  68  73 SW5       29.87F
OCONTO         CLOUDY    78  70  76 W6        29.88F
$$

WIZ017-030-035>037-045-130000-
CENTRAL WISCONSIN

CITY           SKY/WX    TMP DP  RH WIND       PRES   REMARKS
MEDFORD        HVY RAIN  63  63  98 S5        30.00R
WAUSAU         LGT RAIN  70  65  84 W9        29.95R
MOSINEE        RAIN      70  68  94 W7        29.97S
MARSHFIELD     LGT RAIN  66  63  90 NW5       29.97S FOG
WISC RAPIDS    LGT RAIN  68  67  96 CALM      29.95F
STEVENS POINT  RAIN      64  60  88 W5        29.96S
WAUPACA        CLOUDY    78  71  80 W5        29.92F
SHAWANO        CLOUDY    78  69  73 W6        29.91F
CLINTONVILLE   CLOUDY    77  68  73 W8        29.90F
$$

WIZ038-039-048-051-130000-
FOX VALLEY

CITY           SKY/WX    TMP DP  RH WIND       PRES   REMARKS
NWS GREEN BAY  CLOUDY    79  70  74 SW6       29.89F
APPLETON       CLOUDY    75  68  78 W7        29.91F
OSHKOSH        CLOUDY    75  70  84 VRB3      29.90F
FOND DU LAC    LGT RAIN  74  70  87 SW6       29.91F
$$

WIZ022-050-052-130000-
EAST CENTRAL WISCONSIN

CITY           SKY/WX    TMP DP  RH WIND       PRES   REMARKS
STURGEON BAY   CLOUDY    70  63  78 S5        29.90F
MANITOWOC      CLOUDY    66  61  84 E5        29.91F
SHEBOYGAN      LGT RAIN  75  69  81 W5        29.91F
$$

LMZ563-521-522-541>543-130000-
LAKESHORE

STATION/POSITION TIME  TEMP    WIND        PRES    VSBY  WAVE
                       AIR SEA DIR/SP/G                  HT/PER
                 (UTC) (F)     (DEG/KT/KT) (MB)    (MI)  (FT/S)
SHEBOYGAN LKSHOR 2300   74      CALM  /  8 1012.8F
KEWAUNEE LKSHORE 2300   55     150/  3/  6 1013.3F
NORTHPORT PIER   2300   67     160/  4/  9 1011.9F
N MID LAKE BUOY  2300   58 56  200/ 10/ 12 1012.1F         2/ 4
MENOMINEE LKSHOR 2300   69     150/  9/ 10 1012.5F
$$


USA.gov is the U.S. government's official web portal to all federal, state and local government web resources and services.